Regional Weather Roundup
Issued by NWS

Home | Current Version | Previous Version | Graphics & Text | Print | Product List | Glossary On
Versions: 1 2 3 4 5 6 7 8 9 10 11 12 13 14 15 16 17 18 19 20 21 22 23 24 25 26 27 28 29 30 31 32 33 34 35 36 37 38 39 40 41 42 43 44 45 46 47 48 49 50
000
ASUS45 KCYS 151310
RWRWY

WYOMING REGIONAL WEATHER ROUNDUP
NATIONAL WEATHER SERVICE CHEYENNE WY
700 AM MDT MON SEP 15 2014

NOTE:  "FAIR" INDICATES FEW OR NO CLOUDS BELOW 12,000 FEET
WITH NO SIGNIFICANT WEATHER AND/OR OBSTRUCTIONS TO VISIBILITY.

WYZ001-151400-
YELLOWSTONE NATIONAL PARK

CITY           SKY/WX    TMP DP  RH WIND       PRES   REMARKS
LK YELLOWSTONE   N/A     28  26  92 NW3       30.35R
W YELLOWSTONE  NOT AVBL

$$
WYZ002>013-054>058-071-098>099-151400-
NORTHERN WYOMING

CITY           SKY/WX    TMP DP  RH WIND       PRES   REMARKS
JACKSON        PTCLDY    34  28  80 VRB6      30.30R WCI  29
CODY           CLEAR     45  37  76 SW8       30.24F
GREYBULL       CLEAR     40  38  93 SE3       30.24S
WORLAND        CLEAR     38  36  92 W7        30.25R WCI  33
SHERIDAN       CLEAR     36  32  85 CALM      30.22S
BUFFALO        CLEAR     42  32  67 S5        30.25F
GILLETTE       CLEAR     36  35  96 S5        30.25S WCI  32
HULETT         FAIR      36  34  93 MISG      30.28
NEWCASTLE      FAIR      36  36 100 CALM      30.30

$$
WYZ014>020-022>026-101>103-151400-
CENTRAL WYOMING

CITY           SKY/WX    TMP DP  RH WIND       PRES   REMARKS
BIG PINEY      MOCLDY    36  27  69 CALM      30.34R
PINEDALE       PTSUNNY   32  25  74 MISG      30.35S
DUBOIS         FAIR      34  27  75 NW10      30.34S WCI  26
LANDER         CLEAR     42  34  73 S3        30.29S
RIVERTON       PTCLDY    38  33  82 NW6       30.29S WCI  33
CASPER         CLEAR     34  32  92 SW6       30.31R WCI  29
DOUGLAS        FOG       36  35  96 CALM      30.31R VSB 1/4

$$
WYZ021-027>030-104>119-151400-
SOUTHERN WYOMING

CITY           SKY/WX    TMP DP  RH WIND       PRES   REMARKS
EVANSTON       PTCLDY    53  34  48 S6        30.30R
KEMMERER       MOSUNNY   43  30  61 N13       30.31F
FORT BRIDGER   PTSUNNY   52  34  51 SE9       30.31F
ROCK SPRINGS   CLEAR     43  33  68 NE8       30.31S
DIXON          FAIR      41  34  76 CALM      30.34R
RAWLINS        CLEAR     38  37  97 E6        30.34R WCI  33
SARATOGA       FAIR      36  32  87 CALM      30.36R
LARAMIE        FOG       35  35 100 SW5       30.37R VSB<1/4 WCI  31
CHEYENNE       CLEAR     41  36  82 W9        30.34R
TORRINGTON     CLEAR     36  35  96 NW6       30.31R WCI  31
PINE BLUFFS    FOG       36  36 100 CALM      30.34R VSB<1/4

$$



USA.gov is the U.S. government's official web portal to all federal, state and local government web resources and services.